Weather in Krasnoyarka

Russia / Novosibirsk Oblast     55°32′07″N   76°18′15″E
temp.,
°C
wind,
m/s
gust,
m/s
humid.,
%
clouds,
%
prec.,
mm/h
press.,
hPa
HPBL,
m
28 september, tue
tue2801:00+6ene4859100 0.0 1025360
04:00+5ne3766100 0.0 1024213
07:00+3ne3676100 0.0 1024183
10:00+4ene4773100 0.0 1023279
13:00+7e4659100 0.1 10221296
16:00+8e5651100 0.1 10201447
19:00+6e4859100 0.1 1020456
22:00+3ene387398 0.0 1019167
29 september, wed
wed2901:00+2ene497694 0.0 1017195
04:00+2ne41074100 0.0 1015241
07:00+2ne41075100 0.0 1015300
10:00+4ne5972100 0.0 1015433
13:00+7ne6856100 0.0 10141216
16:00+7nne5753100 0.0 10151334
19:00+6n4761100 0.1 1016523
22:00+4n3673100 0.0 1016143
30 september, thu
thu3001:00+3nnw3679100 0.0 1016160
04:00+2nnw3792100 0.0 1016201
07:00+2nnw3794100 0.0 1017208
10:00+3nnw4683100 0.0 1018343
13:00+6nw446689 0.0 10171046
16:00+6nw5565100 0.1 10171169
19:00+4wnw3669100 0.2 1017777
22:00+4wnw3673100 0.0 1017568
1 october, fri
fri101:00+3w3677100 0.0 1016504
04:00+3sw487699 0.0 1015221
07:00+2wsw4975100 0.0 1014296
10:00+3w5965100 0.0 1013655
13:00+2w5997100 0.4 1013605
16:00+2wnw4793100 0.4 1014627
19:00+2nw488694 0.8 1015540
22:00+1nw3782100 0.0 1016286
2 october, sat
sat201:000wnw3787100 0.1 1016302
04:00−1wnw489798 0.3 1016361
07:00−1wnw3797100 0.4 1017359
10:000wnw4691100 0.2 1017411
13:00+2wnw4486100 0.4 1018639
16:00+3nw347194 0.4 1019952
19:00+2nw347796 0.8 102178
22:00−1nw37915 0.0 1024128